Regional Weather Roundup
Issued by NWS

Home | Current Version | Previous Version | Graphics & Text | Print | Product List | Glossary On
Versions: 1 2 3 4 5 6 7 8 9 10 11 12 13 14 15 16 17 18 19 20 21 22 23 24 25 26 27 28 29 30 31 32 33 34 35 36 37 38 39 40 41 42 43 44 45 46 47 48 49 50
000
ASUS43 KFSD 270402
RWRSD

WEATHER ROUNDUP FOR SOUTH DAKOTA
NATIONAL WEATHER SERVICE SIOUX FALLS SD
1100 PM CDT WED APR 26 2017

NOTE: "FAIR" INDICATES FEW OR NO CLOUDS BELOW 12,000 FEET WITH NO
SIGNIFICANT WEATHER AND/OR OBSTRUCTIONS TO VISIBILITY.


SDZ001>005-009-010-012>017-270500-
NORTHWEST AND NORTH CENTRAL SOUTH DAKOTA

CITY           SKY/WX    TMP DP  RH WIND       PRES   REMARKS
BUFFALO          N/A     39  25  57 E6        29.65S
FAITH            N/A     33  26  75 E7        29.71S WCI  27
MOBRIDGE       PTCLDY    30  23  75 NE9       29.72S WCI  22
$$

SDZ012>016-024>037-041>051-057-063-072>074-270500-
SOUTHWEST AND SOUTH CENTRAL SOUTH DAKOTA

CITY           SKY/WX    TMP DP  RH WIND       PRES   REMARKS
RAPID CTY ARPT CLEAR     30  26  85 W8        29.72F WCI  22
PIERRE         CLEAR     29  24  82 E7        29.72S WCI  22
CUSTER         CLOUDY    32  29  88 CALM      29.68S
ELLSWORTH AFB  CLEAR     31  30  96 W8        29.71F WCI  23
PHILIP         CLEAR     33  30  88 W9        29.71F WCI  25
PINE RIDGE     CLEAR     31  29  92 CALM      29.74R
SPEARFISH      FAIR      28  27  93 CALM      29.71F
$$

SDZ004>011-016>023-039-040-270500-
NORTHEAST SOUTH DAKOTA

CITY           SKY/WX    TMP DP  RH WIND       PRES   REMARKS
ABERDEEN       CLOUDY    29  23  78 N13       29.73F WCI  19
WATERTOWN      CLOUDY    27  23  85 N14       29.66F WCI  16
BROOKINGS      CLOUDY    29  25  85 N16       29.67F WCI  17
SISSETON         N/A     29  26  89 N22       29.69F WCI  15
$$

SDZ017-020-022-023-036>040-048>070-270500-
SOUTHEAST SOUTH DAKOTA

CITY           SKY/WX    TMP DP  RH WIND       PRES   REMARKS
SIOUX FALLS    CLOUDY    32  27  81 N12       29.69R WCI  23
HURON          CLOUDY    32  26  78 N16       29.72S WCI  21
CHAMBERLAIN    CLEAR     32  29  89 CALM      29.72F
MITCHELL       CLOUDY    33  27  78 N12       29.73S WCI  24
YANKTON        CLOUDY    34  25  69 NW9       29.72S WCI  26
$$

ABBREVIATIONS USED IN REMARKS
   TC - TEMPERATURE IN CELSIUS
  WCI - WIND CHILL INDEX
   HX - HEAT INDEX
  VSB - VISIBILITY





USA.gov is the U.S. government's official web portal to all federal, state and local government web resources and services.